Billings, MT

6:19 PM MDT on June 30, 2015 (GMT -0600)
South of Castle Rock Park | | Change Station
CLOSE
Current Station
Personal Weather Station
Location: Billings, MT
Elevation: 3297 ft
Nearby Weather Stations

Elev 3297 ft 45.82 °N, 108.50 °W | Updated 10 seconds ago

Partly Cloudy
Partly Cloudy
96.7 °F
Feels Like 93 °F
N
2.2
Wind Variable Wind from North
Gusts 4.9 mph

Today
High -- | Low -- °F
--% Chance of Precip.
Yesterday
High -- | Low -- °F
Precip. -- in
5:27 AM 9:07 PM
Waxing Gibbous, 99% visible
Pressure 29.81 in
Visibility 10.0 miles
Clouds Scattered Clouds 10000 ft
Heat Index 93 °F
Dew Point 49 °F
Humidity 20%
Rainfall 0.00 in
Snow Depth Not available.
UV 3 out of 12
Pollen 6.30 out of 12
Air Quality Not available.
Flu Activity Sporadic
METAR KBIL 302353Z 34018G29KT 10SM SCT100 34/06 A2994 RMK AO2 PK WND 33033/2323 SLP094 T03440056 10356 20328 56006

More Conditions Fewer Conditions

Pressure 29.81 in
Visibility 10.0 miles
Clouds Scattered Clouds 10000 ft
Heat Index 93 °F
Dew Point 49 °F
Humidity 20%
Rainfall 0.00 in
Snow Depth Not available.
UV 3 out of 12
Pollen 6.30 out of 12
Air Quality Not available.
Flu Activity Sporadic
METAR KBIL 302353Z 34018G29KT 10SM SCT100 34/06 A2994 RMK AO2 PK WND 33033/2323 SLP094 T03440056 10356 20328 56006

More Conditions Fewer Conditions

10-Day Weather Forecast

×

Almanac

Astronomy

Jun. 30, 2015 Rise Set
Actual Time
Civil Twilight
Nautical Twilight
Astronomical Twilight
Moon
Length of Visible Light
Length of Day
Tomorrow will be .
, % of the Moon is Illuminated

Today's Extremes

State Highs State Lows

Community

WunderPhotos

Upload Photos

1,834,073 photos uploaded!

WunderBlogs® & News

Nearby

Air Quality

  Air Quality AQ Index Pollutant
Not available.

Snow Depth

Station Depth Elevation

Earthquake Activity

City Distance Mag. Time & Date
Minimum magnitude displayed is 2.5.

Coastal Water Temperatures

Place Temperature

Stations

Nearby Weather Stations

Station Location Temp. Windchill Dew Point Humidity Wind Precip. Elev Updated Type